Weather History for Buffalo, MN

Change the Weather History Date:

Sunday, November 24, 2013

  Actual Average (KSTC) Record (KSTC)
Temperature  
Mean Temperature 18 °F 25 °F  
Max Temperature 32 °F 34 °F 56 °F (1990)
Min Temperature 5 °F 17 °F -17 °F (1898)
Degree Days  
Heating Degree Days 46 40  
Month to date heating degree days 790  
Since 1 July heating degree days 1675  
Cooling Degree Days 0 0  
Month to date cooling degree days 0  
Year to date cooling degree days 465  
Moisture  
Dew Point 9 °F    
Average Humidity 62    
Maximum Humidity 83    
Minimum Humidity 44    
Precipitation  
Precipitation 0.00 in 0.04 in 1.07 in (2001)
Month to date precipitation 1.15  
Year to date precipitation 26.68  
Snow  
Snow 0.00 in 0.40 in 6.30 in (2003)
Month to date snowfall 6.3  
Since 1 July snowfall 7.1  
Since 1 September snowfall 7.1  
Snow Depth -    
Sea Level Pressure  
Sea Level Pressure 30.30 in    
Wind  
Wind Speed 7 mph (South)    
Max Wind Speed 17 mph    
Max Gust Speed 30 mph    
Visibility 10 miles    
Events      
T = Trace of Precipitation, MM = Missing Value Source: NWS Daily Summary

Daily Weather History Graph

Daily Weather History Graph

Search for Another Location

Airport:

Trip Planner

Search our weather history database for the weather conditions in past years. The results will help you decide how hot, cold, wet, or windy it might be!

Date:

Astronomy

Nov. 24, 2013 Rise Set
Actual Time 7:25 AM CST 4:38 PM CST
Civil Twilight 6:53 AM CST 5:10 PM CST
Nautical Twilight 6:16 AM CST 5:47 PM CST
Astronomical Twilight 5:41 AM CST 6:22 PM CST
Moon 11:13 PM CST (11/24) 12:05 PM CST (11/24)
Length of Visible Light 10h 17m
Length of Day
9h 12m
Waning Gibbous, 60% of the Moon is Illuminated
Nov 24
Waning Gibbous
Nov 25
Last Quarter
Dec 2
New
Dec 9
First Quarter
Dec 17
Full

Hourly Weather History & Observations

Time (CST) Temp. Windchill Dew Point Humidity Pressure Visibility Wind Dir Wind Speed Gust Speed Precip Events Conditions
12:16 AM 7.7 °F - 2.7 °F 80% 30.69 in 10.0 mi Calm Calm - N/A   Clear
12:36 AM 7.3 °F - 2.3 °F 80% 30.69 in 10.0 mi Calm Calm - N/A   Clear
12:56 AM 7.5 °F - 2.7 °F 81% 30.68 in 10.0 mi Calm Calm - N/A   Clear
1:16 AM 7.7 °F - 2.8 °F 81% 30.67 in 10.0 mi Calm Calm - N/A   Clear
1:36 AM 5.9 °F - 1.4 °F 82% 30.66 in 10.0 mi Calm Calm - N/A   Clear
1:56 AM 6.1 °F - 1.4 °F 81% 30.66 in 10.0 mi Calm Calm - N/A   Clear
2:16 AM 6.3 °F - 1.9 °F 82% 30.64 in 10.0 mi Calm Calm - N/A   Clear
2:35 AM 5.5 °F - 1.4 °F 83% 30.63 in 10.0 mi Calm Calm - N/A   Clear
2:56 AM 5.5 °F - 1.4 °F 83% 30.63 in 10.0 mi Calm Calm - N/A   Clear
3:16 AM 5.4 °F - 1.0 °F 82% 30.62 in 10.0 mi Calm Calm - N/A   Clear
3:35 AM 5.0 °F - 0.5 °F 82% 30.61 in 10.0 mi Calm Calm - N/A   Clear
3:56 AM 5.7 °F - 1.2 °F 82% 30.59 in 10.0 mi Calm Calm - N/A   Clear
4:16 AM 6.6 °F -2.2 °F 1.6 °F 80% 30.58 in 10.0 mi SE 4.6 mph - N/A   Clear
4:35 AM 7.0 °F -1.7 °F 1.9 °F 80% 30.57 in 10.0 mi SSE 4.6 mph - N/A   Clear
4:56 AM 7.7 °F -0.9 °F 2.3 °F 79% 30.56 in 10.0 mi SSE 4.6 mph - N/A   Clear
5:16 AM 7.7 °F 1.0 °F 2.1 °F 78% 30.56 in 10.0 mi SSE 3.5 mph - N/A   Clear
5:35 AM 8.2 °F 1.6 °F 2.1 °F 76% 30.55 in 10.0 mi SSE 3.5 mph - N/A   Clear
5:56 AM 8.6 °F -1.3 °F 1.9 °F 74% 30.55 in 10.0 mi SSE 5.8 mph - N/A   Clear
6:16 AM 9.5 °F -1.5 °F 1.9 °F 71% 30.54 in 10.0 mi SSE 6.9 mph - N/A   Clear
6:35 AM 9.9 °F -1.1 °F 1.9 °F 70% 30.53 in 10.0 mi SSE 6.9 mph - N/A   Clear
6:56 AM 9.9 °F 1.6 °F 2.1 °F 71% 30.51 in 10.0 mi SSE 4.6 mph - N/A   Clear
7:15 AM 9.9 °F -2.2 °F 2.1 °F 71% 30.50 in 10.0 mi SSE 8.1 mph - N/A   Clear
7:36 AM 10.2 °F -1.7 °F 2.3 °F 70% 30.49 in 10.0 mi South 8.1 mph - N/A   Clear
7:56 AM 11.3 °F -1.3 °F 2.7 °F 68% 30.48 in 10.0 mi SSE 9.2 mph - N/A   Clear
8:16 AM 12.6 °F -1.4 °F 3.0 °F 66% 30.47 in 10.0 mi SSE 11.5 mph 18.4 mph N/A   Clear
8:36 AM 13.1 °F -0.7 °F 3.4 °F 65% 30.46 in 10.0 mi SSE 11.5 mph 19.6 mph N/A   Clear
8:56 AM 14.0 °F 0.5 °F 3.7 °F 64% 30.45 in 10.0 mi SSE 11.5 mph 18.4 mph N/A   Clear
9:16 AM 14.9 °F 0.9 °F 4.3 °F 63% 30.44 in 10.0 mi South 12.7 mph 19.6 mph N/A   Clear
9:36 AM 16.7 °F 5.3 °F 5.2 °F 61% 30.42 in 10.0 mi South 9.2 mph 18.4 mph N/A   Clear
9:56 AM 18.3 °F 6.6 °F 5.9 °F 58% 30.40 in 10.0 mi South 10.4 mph 20.7 mph N/A   Clear
10:16 AM 19.6 °F 6.8 °F 6.1 °F 56% 30.39 in 10.0 mi South 12.7 mph 18.4 mph N/A   Clear
10:36 AM 20.8 °F 7.3 °F 6.6 °F 54% 30.37 in 10.0 mi South 15.0 mph 21.9 mph N/A   Clear
10:56 AM 22.1 °F 9.5 °F 7.5 °F 54% 30.34 in 10.0 mi South 13.8 mph 21.9 mph N/A   Clear
11:16 AM 23.7 °F 11.0 °F 8.4 °F 52% 30.32 in 10.0 mi South 15.0 mph 23.0 mph N/A   Clear
11:36 AM 24.8 °F 11.5 °F 8.6 °F 50% 30.30 in 10.0 mi South 17.3 mph 28.8 mph N/A   Clear
11:56 AM 25.5 °F 12.4 °F 9.1 °F 50% 30.28 in 10.0 mi South 17.3 mph 25.3 mph N/A   Clear
12:15 PM 26.8 °F 14.9 °F 9.7 °F 49% 30.27 in 10.0 mi South 15.0 mph 21.9 mph N/A   Clear
12:36 PM 27.5 °F 16.3 °F 10.2 °F 48% 30.25 in 10.0 mi South 13.8 mph 21.9 mph N/A   Clear
12:56 PM 28.9 °F 18.6 °F 10.6 °F 46% 30.23 in 10.0 mi South 12.7 mph 21.9 mph N/A   Clear
1:15 PM 29.8 °F 18.9 °F 11.1 °F 46% 30.21 in 10.0 mi South 15.0 mph 21.9 mph N/A   Clear
1:36 PM 30.2 °F 18.9 °F 11.3 °F 45% 30.19 in 10.0 mi South 16.1 mph 29.9 mph N/A   Clear
1:56 PM 31.1 °F 19.7 °F 11.7 °F 45% 30.18 in 10.0 mi South 17.3 mph 26.5 mph N/A   Clear
2:15 PM 31.5 °F 20.1 °F 12.0 °F 45% 30.17 in 10.0 mi South 17.3 mph 24.2 mph N/A   Clear
2:36 PM 32.0 °F 21.2 °F 12.4 °F 44% 30.16 in 10.0 mi South 16.1 mph 24.2 mph N/A   Clear
2:55 PM 32.2 °F 21.4 °F 12.9 °F 45% 30.15 in 10.0 mi South 16.1 mph 23.0 mph N/A   Clear
3:16 PM 32.4 °F 21.7 °F 13.1 °F 45% 30.14 in 10.0 mi South 16.1 mph 24.2 mph N/A   Clear
3:36 PM 32.5 °F 22.7 °F 13.1 °F 45% 30.13 in 10.0 mi South 13.8 mph 20.7 mph N/A   Clear
3:55 PM 32.2 °F 23.2 °F 13.1 °F 45% 30.12 in 10.0 mi South 11.5 mph 23.0 mph N/A   Clear
4:16 PM 32.0 °F 23.0 °F 13.8 °F 47% 30.11 in 10.0 mi SSE 11.5 mph 18.4 mph N/A   Clear
4:36 PM 32.0 °F 22.5 °F 14.0 °F 48% 30.09 in 10.0 mi South 12.7 mph 19.6 mph N/A   Clear
4:55 PM 31.8 °F 22.3 °F 14.5 °F 49% 30.08 in 10.0 mi South 12.7 mph 20.7 mph N/A   Clear
5:16 PM 31.5 °F 21.8 °F 14.9 °F 50% 30.07 in 10.0 mi South 12.7 mph 23.0 mph N/A   Clear
5:36 PM 31.1 °F 20.9 °F 14.9 °F 51% 30.04 in 10.0 mi South 13.8 mph 21.9 mph N/A   Clear
5:55 PM 30.6 °F 19.8 °F 14.9 °F 52% 30.04 in 10.0 mi South 15.0 mph 24.2 mph N/A   Clear
6:16 PM 30.4 °F 20.0 °F 14.9 °F 53% 30.03 in 10.0 mi South 13.8 mph 27.6 mph N/A   Clear
6:36 PM 30.6 °F 20.2 °F 15.1 °F 53% 30.03 in 10.0 mi South 13.8 mph 25.3 mph N/A   Clear
6:55 PM 30.2 °F 18.5 °F 14.9 °F 53% 30.03 in 10.0 mi South 17.3 mph 28.8 mph N/A   Clear
7:16 PM 29.5 °F 18.4 °F 15.3 °F 55% 30.03 in 10.0 mi South 15.0 mph 20.7 mph N/A   Clear
7:36 PM 29.3 °F 19.1 °F 15.4 °F 56% 30.03 in 10.0 mi South 12.7 mph 18.4 mph N/A   Clear
7:55 PM 28.9 °F 19.2 °F 15.4 °F 57% 30.01 in 10.0 mi South 11.5 mph 21.9 mph N/A   Clear
8:16 PM 28.8 °F 19.0 °F 15.3 °F 57% 30.01 in 10.0 mi South 11.5 mph 24.2 mph N/A   Clear
8:36 PM 27.9 °F 17.8 °F 15.3 °F 59% 30.01 in 10.0 mi South 11.5 mph 20.7 mph N/A   Clear
8:55 PM 27.5 °F 17.4 °F 15.1 °F 60% 30.01 in 10.0 mi South 11.5 mph 19.6 mph N/A   Clear
9:16 PM 27.5 °F 16.3 °F 15.3 °F 60% 30.01 in 10.0 mi South 13.8 mph 23.0 mph N/A   Clear
9:35 PM 27.5 °F 17.4 °F 15.1 °F 60% 30.00 in 10.0 mi South 11.5 mph 20.7 mph N/A   Clear
9:56 PM 27.5 °F 16.8 °F 14.9 °F 59% 29.99 in 10.0 mi South 12.7 mph 20.7 mph N/A   Clear
10:16 PM 27.3 °F 16.6 °F 15.3 °F 61% 29.98 in 10.0 mi South 12.7 mph 18.4 mph N/A   Clear
10:35 PM 27.3 °F 17.1 °F 15.4 °F 61% 29.97 in 10.0 mi South 11.5 mph 20.7 mph N/A   Clear
10:56 PM 27.5 °F 17.4 °F 15.8 °F 61% 29.96 in 10.0 mi South 11.5 mph 18.4 mph N/A   Clear
11:16 PM 27.9 °F 17.8 °F 15.8 °F 61% 29.96 in 10.0 mi South 11.5 mph 19.6 mph N/A   Clear
11:36 PM 28.0 °F 17.5 °F 15.8 °F 60% 29.95 in 10.0 mi South 12.7 mph 20.7 mph N/A   Clear
11:56 PM 28.4 °F 18.0 °F 16.2 °F 60% 29.95 in 10.0 mi SSW 12.7 mph 18.4 mph N/A   Clear